This demonstration page uses our WeatherBlox Daily Observations layout. Learn more.

Left ArrowRight Arrow

34.16533, -84.80231

Hourly Observations for March 16, 2020

Temp ( °F °C ) Dew Point ( °F °C ) Humidity (%) Winds ( mph kmh ) Pressure ( in mb ) Visibility ( mi km ) Precip ( " mm )
12:53 am 00:53 Cloudy 55 12.8 49 9.4 80 80 N 6 9 30.31 1026 10 16 0.00 0.00
1:04 am 01:04 Cloudy 55 12.8 49 9.4 80 80 VRB 5 7 30.33 1027 10 16 0.00 0.00
1:53 am 01:53 Cloudy 54 12.2 49 9.4 83 83 NNE 5 7 30.29 1026 10 16 0.00 0.00
2:53 am 02:53 Cloudy 54 12.2 49 9.4 83 83 Calm 30.29 1026 10 16 0.00 0.00
3:53 am 03:53 Cloudy 54 12.2 49 9.4 83 83 NNE 3 6 30.27 1025 10 16 0.00 0.00
4:53 am 04:53 Cloudy 54 12.2 49 9.4 83 83 Calm 30.27 1025 10 16 0.00 0.00
5:41 am 05:41 Cloudy 54 12.2 50 10 87 87 Calm 30.28 1026 10 16 0.00 0.00
5:53 am 05:53 Cloudy 54 12.2 50 10 87 87 Calm 30.27 1025 10 16 0.00 0.00
6:53 am 06:53 Cloudy 56 13.3 51 10.6 84 84 E 5 7 30.27 1025 10 16 0.00 0.00
7:23 am 07:23 Cloudy 56 13.3 52 11.1 87 87 E 7 11 30.30 1026 10 16 0.00 0.00
7:53 am 07:53 Cloudy 56 13.3 51 10.6 84 84 VRB 7 11 30.29 1026 10 16 0.00 0.00
8:53 am 08:53 Cloudy 55 12.8 50 10 83 83 E 8 13 30.31 1026 10 16 0.00 0.00
9:53 am 09:53 Cloudy 54 12.2 50 10 87 87 E 9 15 30.32 1027 8 13 0.00 0.00
10:53 am 10:53 Cloudy 55 12.8 50 10 83 83 E 6 9 30.34 1027 10 16 0.00 0.00
11:53 am 11:53 Cloudy 55 12.8 50 10 83 83 E 5 7 30.34 1028 10 16 0.00 0.00
12:02 pm 12:02 Cloudy 55 12.8 50 10 83 83 E 8 13 30.36 1028 10 16 0.00 0.00
12:19 pm 12:19 Cloudy 55 12.8 50 10 83 83 E 9 15 30.36 1028 10 16 0.00 0.00
12:53 pm 12:53 Cloudy 55 12.8 49 9.4 80 80 E 8 13 30.33 1027 10 16 0.00 0.00
1:53 pm 13:53 Cloudy 55 12.8 49 9.4 80 80 E 14 22 30.30 1026 10 16 0.00 0.00
2:49 pm 14:49 Cloudy 55 13 48 9 77 77 ESE 8 13 30.30 1026 10 16 0.00 0.00
2:53 pm 14:53 Cloudy 55 12.8 49 9.4 80 80 ESE 9 15 30.28 1025 10 16 0.00 0.00
3:53 pm 15:53 Cloudy 56 13.3 49 9.4 77 77 E 10 17 30.25 1024 10 16 0.00 0.00
4:53 pm 16:53 Cloudy 56 13.3 49 9.4 77 77 ESE 7 11 30.25 1024 10 16 0.00 0.00
5:53 pm 17:53 Cloudy 56 13.3 50 10 81 81 E 9 15 30.22 1024 10 16 0.00 0.00
6:53 pm 18:53 Cloudy 56 13.3 49 9.4 77 77 E 8 13 30.24 1024 10 16 0.00 0.00
7:53 pm 19:53 Cloudy 55 12.8 49 9.4 80 80 E 6 9 30.24 1024 10 16 0.00 0.00
8:53 pm 20:53 Cloudy 55 12.8 49 9.4 80 80 E 6 9 30.25 1025 10 16 0.00 0.00
9:53 pm 21:53 Cloudy 54 12.2 48 8.9 80 80 E 7 11 30.24 1024 10 16 0.00 0.00
10:53 pm 22:53 Cloudy 54 12.2 49 9.4 83 83 ESE 7 11 30.26 1025 10 16 0.00 0.00
11:53 pm 23:53 Cloudy 54 12.2 49 9.4 83 83 ESE 6 9 30.24 1024 9 14 0.00 0.00

Powered by AerisWeather